URO970P EHBK-EGHH

Flight info

Callsign URO970P
Flight time 0h 54m
Altitude 40000
Route LNO N852 TERLA L608 DENUT L610 KOPUL Q63 IPKUS/N0402F240 M40 UMBUR
Aircraft A346/H-SDE2E3FGHIJ3J4J5M1RWXY/LB1D1

Departure

Time 2026-05-06 11:50
Airport Maastricht Aachen Airport (EHBK)

Arrival

Time 2026-05-06 12:45
Airport Bournemouth Airport (EGHH)
Time Latitude Longitude Altitude Speed Heading
2026-05-06 11:30 50.92211 5.77654 392 ft 0 kts 303°
2026-05-06 11:44 50.92212 5.77651 392 ft 1 kts 300°
2026-05-06 11:44 50.92214 5.77640 392 ft 0 kts 273°
2026-05-06 11:44 50.92214 5.77638 392 ft 0 kts 271°
2026-05-06 11:44 50.92212 5.77626 392 ft 2 kts 252°
2026-05-06 11:45 50.92199 5.77603 392 ft 4 kts 211°
2026-05-06 11:45 50.92167 5.77616 392 ft 7 kts 130°
2026-05-06 11:45 50.92142 5.77708 392 ft 11 kts 112°
2026-05-06 11:45 50.92092 5.77834 393 ft 15 kts 139°
2026-05-06 11:46 50.91978 5.77821 392 ft 20 kts 210°
2026-05-06 11:46 50.91850 5.77695 390 ft 23 kts 213°
2026-05-06 11:46 50.91707 5.77549 390 ft 26 kts 213°
2026-05-06 11:46 50.91544 5.77381 391 ft 29 kts 213°
2026-05-06 11:47 50.91366 5.77202 393 ft 31 kts 212°
2026-05-06 11:47 50.91175 5.77008 392 ft 34 kts 213°
2026-05-06 11:47 50.90968 5.76798 390 ft 36 kts 212°
2026-05-06 11:47 50.90755 5.76583 393 ft 36 kts 212°
2026-05-06 11:48 50.90538 5.76364 394 ft 38 kts 212°
2026-05-06 11:48 50.90311 5.76133 391 ft 39 kts 213°
2026-05-06 11:48 50.90135 5.75953 392 ft 20 kts 212°
2026-05-06 11:48 50.90071 5.75835 394 ft 10 kts 242°
2026-05-06 11:49 50.90044 5.75815 394 ft 4 kts 121°
2026-05-06 11:49 50.90062 5.75875 394 ft 9 kts 41°
2026-05-06 11:49 50.90130 5.75951 392 ft 15 kts 33°
2026-05-06 11:49 50.90267 5.76090 392 ft 50 kts 32°
2026-05-06 11:50 50.90802 5.76630 393 ft 128 kts 32°
2026-05-06 11:50 50.91694 5.77541 658 ft 168 kts 30°
2026-05-06 11:50 50.92657 5.78694 1571 ft 175 kts 47°
2026-05-06 11:50 50.93266 5.80339 2564 ft 175 kts 59°
2026-05-06 11:51 50.93817 5.82159 3212 ft 192 kts 69°
2026-05-06 11:51 50.93804 5.84360 3849 ft 214 kts 105°
2026-05-06 11:51 50.92974 5.86449 4476 ft 237 kts 131°
2026-05-06 11:51 50.91534 5.88013 5036 ft 267 kts 152°
2026-05-06 11:52 50.89782 5.89266 5894 ft 282 kts 156°
2026-05-06 11:52 50.87943 5.90434 6994 ft 287 kts 157°
2026-05-06 11:52 50.86071 5.91609 8115 ft 292 kts 157°
2026-05-06 11:52 50.84166 5.92828 9219 ft 298 kts 156°
2026-05-06 11:53 50.82216 5.94053 10277 ft 305 kts 162°
2026-05-06 11:53 50.80065 5.94342 11048 ft 321 kts 191°
2026-05-06 11:53 50.77984 5.92917 11737 ft 338 kts 219°
2026-05-06 11:53 50.76497 5.89980 12445 ft 352 kts 247°
2026-05-06 11:54 50.76035 5.86184 13417 ft 356 kts 274°
2026-05-06 11:54 50.76630 5.82382 14585 ft 358 kts 291°
2026-05-06 11:54 50.77606 5.78735 15669 ft 363 kts 294°
2026-05-06 11:54 50.78618 5.75025 16657 ft 369 kts 293°
2026-05-06 11:55 50.79597 5.71244 17673 ft 373 kts 292°
2026-05-06 11:55 50.80539 5.67405 18637 ft 378 kts 291°
2026-05-06 11:55 50.81157 5.64811 19164 ft 382 kts 290°
2026-05-06 11:55 50.82084 5.60837 19940 ft 388 kts 290°
2026-05-06 11:56 50.83008 5.56782 20760 ft 395 kts 289°
2026-05-06 11:56 50.84238 5.51253 21921 ft 401 kts 288°
2026-05-06 11:56 50.84792 5.48441 22516 ft 405 kts 286°
2026-05-06 11:56 50.85590 5.44131 23385 ft 410 kts 285°
2026-05-06 11:57 50.86391 5.39751 24125 ft 416 kts 285°
2026-05-06 11:57 50.87202 5.35323 24866 ft 421 kts 285°
2026-05-06 11:57 50.88026 5.30840 25599 ft 426 kts 285°
2026-05-06 11:57 50.88862 5.26310 26334 ft 431 kts 286°
2026-05-06 11:58 50.89709 5.21720 27053 ft 436 kts 285°
2026-05-06 11:58 50.90566 5.17087 27776 ft 441 kts 285°
2026-05-06 11:58 50.91433 5.12391 28466 ft 446 kts 285°
2026-05-06 11:58 50.92306 5.07650 29164 ft 451 kts 285°
2026-05-06 11:59 50.93188 5.02839 29818 ft 456 kts 285°
2026-05-06 11:59 50.94072 4.97993 30388 ft 461 kts 285°
2026-05-06 11:59 50.94974 4.93076 30958 ft 465 kts 285°
2026-05-06 11:59 50.95877 4.88121 31626 ft 467 kts 285°
2026-05-06 12:00 50.96781 4.83175 32474 ft 464 kts 284°
2026-05-06 12:00 50.97673 4.78261 33344 ft 462 kts 285°
2026-05-06 12:00 50.98561 4.73359 34143 ft 460 kts 284°
2026-05-06 12:00 50.99440 4.68473 34782 ft 460 kts 284°
2026-05-06 12:01 51.00313 4.63600 35425 ft 459 kts 284°
2026-05-06 12:01 51.01187 4.58724 36048 ft 458 kts 284°
2026-05-06 12:01 51.02059 4.53853 36648 ft 458 kts 284°
2026-05-06 12:01 51.02928 4.48985 37222 ft 457 kts 284°
2026-05-06 12:02 51.03795 4.44117 37781 ft 457 kts 283°
2026-05-06 12:02 51.04647 4.39316 38307 ft 457 kts 283°
2026-05-06 12:02 51.05519 4.34387 38723 ft 458 kts 283°
2026-05-06 12:02 51.06381 4.29490 39023 ft 460 kts 283°
2026-05-06 12:03 51.07244 4.24571 39321 ft 463 kts 283°
2026-05-06 12:03 51.08112 4.19620 39614 ft 464 kts 283°
2026-05-06 12:03 51.08968 4.14719 39856 ft 467 kts 283°
2026-05-06 12:03 51.09843 4.09701 39891 ft 475 kts 283°
2026-05-06 12:04 51.11620 3.99472 39895 ft 481 kts 283°
2026-05-06 12:04 51.13397 3.89191 39898 ft 481 kts 283°
2026-05-06 12:05 51.15165 3.78903 39908 ft 481 kts 283°
2026-05-06 12:05 51.16919 3.68615 39907 ft 480 kts 283°
2026-05-06 12:06 51.18664 3.58329 39908 ft 480 kts 283°
2026-05-06 12:06 51.20397 3.48045 39910 ft 480 kts 283°
2026-05-06 12:07 51.22120 3.37742 39924 ft 480 kts 283°
2026-05-06 12:07 51.23833 3.27434 39926 ft 480 kts 283°
2026-05-06 12:08 51.25538 3.17129 39941 ft 479 kts 283°
2026-05-06 12:08 51.27234 3.06819 39941 ft 479 kts 283°
2026-05-06 12:09 51.28919 2.96514 39942 ft 479 kts 283°
2026-05-06 12:09 51.30597 2.86189 39950 ft 479 kts 283°
2026-05-06 12:10 51.32261 2.75871 39946 ft 478 kts 283°
2026-05-06 12:10 51.33916 2.65551 39946 ft 479 kts 283°
2026-05-06 12:11 51.35480 2.55738 39947 ft 479 kts 282°
2026-05-06 12:11 51.36811 2.47361 39956 ft 478 kts 282°
2026-05-06 12:12 51.38402 2.37269 39957 ft 478 kts 282°
2026-05-06 12:12 51.40021 2.26919 39950 ft 479 kts 282°
2026-05-06 12:13 51.41666 2.16574 39950 ft 479 kts 283°
2026-05-06 12:13 51.43316 2.06222 39952 ft 479 kts 283°
2026-05-06 12:14 51.44827 1.95830 39952 ft 478 kts 280°
2026-05-06 12:14 51.46123 1.85366 39954 ft 477 kts 279°
2026-05-06 12:15 51.47332 1.74893 39951 ft 477 kts 279°
2026-05-06 12:15 51.48524 1.64419 39955 ft 477 kts 279°
2026-05-06 12:16 51.49718 1.53935 39955 ft 477 kts 279°
2026-05-06 12:16 51.50904 1.43457 39906 ft 477 kts 279°
2026-05-06 12:17 51.51493 1.38213 39669 ft 476 kts 279°
2026-05-06 12:17 51.52078 1.32990 39377 ft 473 kts 279°
2026-05-06 12:17 51.52656 1.27795 38978 ft 470 kts 279°
2026-05-06 12:17 51.53222 1.22684 38427 ft 470 kts 278°
2026-05-06 12:18 51.53689 1.17500 37756 ft 469 kts 276°
2026-05-06 12:18 51.53983 1.12282 37123 ft 468 kts 272°
2026-05-06 12:18 51.54101 1.07056 36434 ft 467 kts 270°
2026-05-06 12:18 51.54068 1.01828 35738 ft 467 kts 268°
2026-05-06 12:19 51.54000 0.96538 35047 ft 467 kts 268°
2026-05-06 12:19 51.53923 0.91309 34369 ft 467 kts 269°
2026-05-06 12:19 51.53848 0.86155 33641 ft 468 kts 269°
2026-05-06 12:19 51.53745 0.80934 32942 ft 465 kts 266°
2026-05-06 12:20 51.53461 0.75782 32419 ft 460 kts 263°
2026-05-06 12:20 51.52999 0.70705 31801 ft 457 kts 260°
2026-05-06 12:20 51.52367 0.65705 31151 ft 455 kts 257°
2026-05-06 12:20 51.51571 0.60797 30547 ft 452 kts 253°
2026-05-06 12:21 51.50617 0.55993 30030 ft 448 kts 250°
2026-05-06 12:21 51.49520 0.51345 29496 ft 442 kts 248°
2026-05-06 12:21 51.48292 0.46851 29016 ft 436 kts 246°
2026-05-06 12:21 51.47035 0.42449 28549 ft 431 kts 246°
2026-05-06 12:22 51.45798 0.38104 28118 ft 425 kts 246°
2026-05-06 12:22 51.44579 0.33820 27689 ft 419 kts 246°
2026-05-06 12:22 51.43374 0.29585 27260 ft 415 kts 246°
2026-05-06 12:22 51.42171 0.25376 26821 ft 410 kts 246°
2026-05-06 12:23 51.40987 0.21239 26395 ft 406 kts 246°
2026-05-06 12:23 51.39806 0.17118 25952 ft 402 kts 246°
2026-05-06 12:23 51.38638 0.13054 25531 ft 399 kts 246°
2026-05-06 12:23 51.37479 0.09035 25114 ft 396 kts 246°
2026-05-06 12:24 51.36320 0.05020 24677 ft 393 kts 246°
2026-05-06 12:24 51.35174 0.01054 24251 ft 391 kts 246°
2026-05-06 12:24 51.34033 -0.02883 23826 ft 388 kts 246°
2026-05-06 12:24 51.32886 -0.06837 23375 ft 385 kts 245°
2026-05-06 12:25 51.31760 -0.10715 22926 ft 382 kts 245°
2026-05-06 12:25 51.30644 -0.14551 22492 ft 379 kts 246°
2026-05-06 12:25 51.29534 -0.18358 22076 ft 376 kts 246°
2026-05-06 12:25 51.28433 -0.22132 21662 ft 372 kts 246°
2026-05-06 12:26 51.27356 -0.25825 21259 ft 370 kts 245°
2026-05-06 12:26 51.26268 -0.29540 20834 ft 368 kts 245°
2026-05-06 12:26 51.25186 -0.33227 20436 ft 365 kts 246°
2026-05-06 12:26 51.24111 -0.36891 20029 ft 363 kts 246°
2026-05-06 12:27 51.23041 -0.40533 19583 ft 362 kts 246°
2026-05-06 12:27 51.21967 -0.44174 19129 ft 361 kts 246°
2026-05-06 12:27 51.20896 -0.47796 18705 ft 360 kts 246°
2026-05-06 12:27 51.19831 -0.51408 18297 ft 359 kts 246°
2026-05-06 12:28 51.18766 -0.55007 17805 ft 358 kts 245°
2026-05-06 12:28 51.17702 -0.58586 17357 ft 356 kts 246°
2026-05-06 12:28 51.16644 -0.62137 16938 ft 353 kts 246°
2026-05-06 12:28 51.15601 -0.65660 16517 ft 351 kts 246°
2026-05-06 12:29 51.14549 -0.69200 16090 ft 349 kts 246°
2026-05-06 12:29 51.13505 -0.72693 15669 ft 348 kts 246°
2026-05-06 12:29 51.12467 -0.76165 15237 ft 346 kts 246°
2026-05-06 12:29 51.11432 -0.79641 14839 ft 345 kts 246°
2026-05-06 12:30 51.10403 -0.83089 14418 ft 344 kts 246°
2026-05-06 12:30 51.09368 -0.86522 14009 ft 343 kts 246°
2026-05-06 12:30 51.08338 -0.89943 13565 ft 342 kts 246°
2026-05-06 12:30 51.07319 -0.93351 13116 ft 340 kts 247°
2026-05-06 12:31 51.06303 -0.96736 12715 ft 337 kts 246°
2026-05-06 12:31 51.05293 -1.00084 12323 ft 335 kts 246°
2026-05-06 12:31 51.04287 -1.03411 11924 ft 332 kts 247°
2026-05-06 12:31 51.03358 -1.06493 11558 ft 330 kts 246°
2026-05-06 12:32 51.02367 -1.09778 11161 ft 329 kts 246°
2026-05-06 12:32 51.01427 -1.13084 10754 ft 327 kts 249°
2026-05-06 12:32 51.00513 -1.16392 10355 ft 326 kts 249°
2026-05-06 12:32 50.99606 -1.19693 9937 ft 325 kts 249°
2026-05-06 12:33 50.98815 -1.22578 9555 ft 324 kts 249°
2026-05-06 12:33 50.97913 -1.25856 9153 ft 322 kts 248°
2026-05-06 12:33 50.97013 -1.29100 8765 ft 319 kts 249°
2026-05-06 12:33 50.96132 -1.32316 8390 ft 316 kts 250°
2026-05-06 12:34 50.95369 -1.35573 8028 ft 313 kts 255°
2026-05-06 12:34 50.94752 -1.38880 7592 ft 312 kts 257°
2026-05-06 12:34 50.94181 -1.42196 7186 ft 310 kts 257°
2026-05-06 12:34 50.93619 -1.45486 6823 ft 306 kts 257°
2026-05-06 12:35 50.93062 -1.48712 6514 ft 300 kts 257°
2026-05-06 12:35 50.92516 -1.51858 6269 ft 290 kts 257°
2026-05-06 12:35 50.91992 -1.54871 6200 ft 276 kts 257°
2026-05-06 12:35 50.91594 -1.57150 6153 ft 265 kts 257°
2026-05-06 12:36 50.91114 -1.59894 6107 ft 252 kts 257°
2026-05-06 12:36 50.90659 -1.62500 6059 ft 239 kts 258°
2026-05-06 12:36 50.90224 -1.64985 6024 ft 230 kts 258°
2026-05-06 12:36 50.89797 -1.67449 5953 ft 233 kts 258°
2026-05-06 12:37 50.89363 -1.69933 5645 ft 233 kts 258°
2026-05-06 12:37 50.88930 -1.72408 5360 ft 233 kts 258°
2026-05-06 12:37 50.88494 -1.74892 5095 ft 235 kts 258°
2026-05-06 12:37 50.88057 -1.77388 4834 ft 234 kts 258°
2026-05-06 12:38 50.87624 -1.79845 4653 ft 229 kts 258°
2026-05-06 12:38 50.87198 -1.82259 4407 ft 227 kts 258°
2026-05-06 12:38 50.86776 -1.84656 4166 ft 226 kts 258°
2026-05-06 12:38 50.86354 -1.87048 3926 ft 224 kts 257°
2026-05-06 12:39 50.85933 -1.89434 3638 ft 225 kts 257°
2026-05-06 12:39 50.85511 -1.91828 3366 ft 226 kts 256°
2026-05-06 12:39 50.85085 -1.94225 3121 ft 226 kts 256°
2026-05-06 12:39 50.84660 -1.96610 2994 ft 224 kts 256°
2026-05-06 12:40 50.84231 -1.98993 2981 ft 225 kts 256°
2026-05-06 12:40 50.83816 -2.01314 2917 ft 213 kts 256°
2026-05-06 12:40 50.83377 -2.03480 2870 ft 201 kts 240°
2026-05-06 12:40 50.82348 -2.04844 2711 ft 196 kts 190°
2026-05-06 12:41 50.81021 -2.04690 2601 ft 192 kts 162°
2026-05-06 12:41 50.79757 -2.04034 2526 ft 190 kts 159°
2026-05-06 12:41 50.78519 -2.03369 2345 ft 185 kts 160°
2026-05-06 12:41 50.77305 -2.02777 2193 ft 180 kts 161°
2026-05-06 12:42 50.76130 -2.02226 1936 ft 176 kts 154°
2026-05-06 12:42 50.75285 -2.00993 1631 ft 164 kts 105°
2026-05-06 12:42 50.75301 -1.99294 1535 ft 152 kts 74°
2026-05-06 12:42 50.75599 -1.97768 1494 ft 140 kts 69°
2026-05-06 12:43 50.75901 -1.96348 1475 ft 134 kts 66°
2026-05-06 12:43 50.76211 -1.94963 1352 ft 133 kts 69°
2026-05-06 12:43 50.76472 -1.93567 1154 ft 132 kts 72°
2026-05-06 12:43 50.76702 -1.92162 947 ft 132 kts 73°
2026-05-06 12:44 50.76930 -1.90747 792 ft 132 kts 73°
2026-05-06 12:44 50.77164 -1.89335 568 ft 133 kts 71°
2026-05-06 12:44 50.77397 -1.87936 400 ft 131 kts 71°
2026-05-06 12:44 50.77630 -1.86541 253 ft 131 kts 71°
2026-05-06 12:45 50.77859 -1.85149 56 ft 130 kts 71°
2026-05-06 12:45 50.78032 -1.84118 50 ft 47 kts 76°
2026-05-06 12:45 50.78131 -1.83937 54 ft 11 kts
2026-05-06 12:46 50.78224 -1.83967 51 ft 16 kts 344°
2026-05-06 12:46 50.78303 -1.84000 54 ft 19 kts 345°
2026-05-06 12:46 50.78440 -1.84057 51 ft 17 kts 345°
2026-05-06 12:46 50.78530 -1.84095 52 ft 2 kts 345°
2026-05-06 12:47 50.78535 -1.84097 54 ft 0 kts 345°